Precipitable_Water
0.36 0.36 0.37 0.38 0.38 0.38 0.38 0.38 0.39 0.40 0.41 0.42 0.43 0.42 0.41 0.41 0.41 0.41 0.41 0.41 0.41 0.42 0.44 0.45 0.45 0.43 0.41 0.40 0.39 0.38 0.37 0.32 0.32 0.33 0.32 0.32 0.34 0.35 0.36 0.38 0.38 0.38 0.36 0.32 0.27 0.25 0.21 0.23 0.22 0.25 0.23 0.20 0.19 0.19 0.26 0.29 0.30 0.30 0.23 0.20 0.18 0.22 0.22 0.31 0.29 0.32 0.37 0.35 0.40 0.44 0.46 0.44 0.42 0.50 0.54 0.61 0.59 0.59 0.61 0.61 0.65 0.68 0.64 0.64 0.65 0.69 0.71 0.75
0.35 0.35 0.35 0.37 0.37 0.36 0.37 0.37 0.38 0.38 0.39 0.39 0.39 0.40 0.41 0.42 0.42 0.42 0.41 0.41 0.41 0.42 0.43 0.43 0.45 0.45 0.46 0.42 0.41 0.39 0.33 0.33 0.28 0.32 0.30 0.36 0.36 0.38 0.37 0.37 0.37 0.33 0.32 0.25 0.23 0.24 0.21 0.21 0.23 0.24 0.23 0.21 0.26 0.22 0.29 0.27 0.33 0.26 0.23 0.21 0.16 0.23 0.28 0.33 0.35 0.39 0.38 0.38 0.42 0.44 0.46 0.45 0.43 0.48 0.53 0.49 0.50 0.53 0.52 0.55 0.58 0.59 0.62 0.66 0.67 0.65 0.67 0.70
0.35 0.35 0.35 0.35 0.35 0.35 0.35 0.36 0.36 0.36 0.37 0.38 0.40 0.40 0.41 0.42 0.44 0.44 0.44 0.44 0.44 0.44 0.44 0.43 0.44 0.45 0.46 0.44 0.41 0.40 0.36 0.35 0.30 0.29 0.30 0.36 0.33 0.33 0.34 0.33 0.33 0.32 0.26 0.22 0.24 0.23 0.21 0.21 0.22 0.22 0.21 0.21 0.25 0.24 0.28 0.29 0.33 0.32 0.26 0.20 0.20 0.25 0.28 0.31 0.35 0.39 0.41 0.42 0.40 0.42 0.45 0.45 0.47 0.49 0.54 0.47 0.46 0.49 0.46 0.47 0.52 0.52 0.52 0.54 0.56 0.59 0.61 0.64
0.37 0.37 0.37 0.36 0.36 0.37 0.37 0.38 0.39 0.40 0.42 0.43 0.44 0.44 0.45 0.46 0.47 0.47 0.46 0.45 0.46 0.45 0.45 0.44 0.44 0.44 0.41 0.39 0.40 0.37 0.33 0.30 0.28 0.33 0.34 0.35 0.35 0.35 0.37 0.36 0.36 0.34 0.30 0.28 0.26 0.24 0.25 0.23 0.22 0.21 0.18 0.18 0.22 0.25 0.23 0.29 0.27 0.33 0.29 0.25 0.26 0.32 0.30 0.31 0.34 0.38 0.40 0.41 0.40 0.41 0.43 0.41 0.45 0.47 0.47 0.45 0.42 0.42 0.45 0.48 0.46 0.45 0.45 0.47 0.50 0.54 0.56 0.58
0.40 0.39 0.39 0.39 0.38 0.39 0.39 0.41 0.42 0.44 0.45 0.47 0.48 0.48 0.49 0.50 0.49 0.50 0.48 0.48 0.46 0.45 0.43 0.44 0.44 0.43 0.41 0.40 0.37 0.34 0.26 0.22 0.25 0.33 0.32 0.34 0.35 0.35 0.38 0.38 0.40 0.36 0.32 0.30 0.31 0.29 0.24 0.21 0.20 0.20 0.18 0.17 0.20 0.21 0.22 0.27 0.30 0.31 0.26 0.29 0.30 0.33 0.30 0.33 0.36 0.38 0.37 0.39 0.38 0.38 0.36 0.36 0.43 0.43 0.42 0.42 0.36 0.36 0.40 0.43 0.46 0.44 0.44 0.45 0.48 0.50 0.52 0.52
0.42 0.41 0.41 0.41 0.42 0.43 0.43 0.44 0.45 0.46 0.46 0.47 0.48 0.49 0.49 0.50 0.50 0.50 0.50 0.49 0.48 0.47 0.46 0.45 0.44 0.42 0.42 0.42 0.39 0.36 0.28 0.14 0.26 0.27 0.33 0.34 0.35 0.35 0.35 0.38 0.38 0.36 0.32 0.28 0.26 0.25 0.23 0.21 0.20 0.18 0.18 0.17 0.18 0.18 0.23 0.26 0.33 0.23 0.28 0.30 0.32 0.33 0.29 0.31 0.32 0.34 0.35 0.34 0.33 0.33 0.36 0.38 0.37 0.36 0.40 0.40 0.37 0.37 0.40 0.41 0.43 0.44 0.46 0.47 0.49 0.51 0.51 0.51
0.44 0.44 0.44 0.44 0.45 0.46 0.46 0.47 0.47 0.47 0.47 0.47 0.48 0.49 0.50 0.51 0.52 0.51 0.50 0.49 0.48 0.46 0.46 0.44 0.44 0.41 0.41 0.44 0.45 0.34 0.26 0.26 0.30 0.31 0.33 0.34 0.34 0.35 0.34 0.35 0.35 0.30 0.28 0.25 0.24 0.23 0.23 0.21 0.20 0.18 0.18 0.17 0.19 0.20 0.23 0.25 0.28 0.26 0.26 0.30 0.30 0.32 0.30 0.32 0.31 0.33 0.33 0.32 0.32 0.35 0.38 0.34 0.34 0.30 0.36 0.33 0.36 0.37 0.39 0.42 0.44 0.45 0.47 0.48 0.48 0.48 0.48 0.49
0.46 0.45 0.46 0.45 0.45 0.45 0.46 0.47 0.47 0.47 0.47 0.48 0.48 0.49 0.49 0.49 0.50 0.51 0.50 0.50 0.49 0.48 0.45 0.43 0.40 0.40 0.42 0.35 0.33 0.26 0.26 0.26 0.32 0.35 0.33 0.32 0.32 0.32 0.33 0.32 0.31 0.29 0.27 0.25 0.24 0.22 0.21 0.19 0.18 0.20 0.18 0.17 0.20 0.20 0.23 0.23 0.27 0.26 0.26 0.28 0.29 0.31 0.33 0.34 0.34 0.33 0.32 0.31 0.32 0.32 0.29 0.30 0.31 0.31 0.32 0.30 0.32 0.35 0.37 0.40 0.41 0.43 0.44 0.45 0.45 0.44 0.44 0.45
0.49 0.47 0.46 0.46 0.45 0.45 0.46 0.46 0.46 0.46 0.47 0.48 0.49 0.49 0.49 0.49 0.49 0.49 0.49 0.49 0.50 0.48 0.46 0.43 0.40 0.41 0.44 0.35 0.27 0.25 0.24 0.31 0.33 0.34 0.34 0.33 0.32 0.32 0.32 0.28 0.29 0.27 0.26 0.26 0.26 0.23 0.21 0.19 0.20 0.20 0.16 0.17 0.20 0.19 0.22 0.20 0.20 0.28 0.28 0.29 0.29 0.30 0.32 0.33 0.33 0.32 0.32 0.32 0.31 0.28 0.28 0.30 0.30 0.32 0.27 0.30 0.32 0.35 0.37 0.37 0.38 0.40 0.41 0.41 0.40 0.41 0.42 0.42
0.49 0.49 0.48 0.46 0.46 0.45 0.46 0.46 0.46 0.46 0.47 0.48 0.48 0.48 0.49 0.49 0.49 0.49 0.50 0.50 0.49 0.46 0.44 0.42 0.43 0.42 0.37 0.31 0.28 0.22 0.28 0.34 0.34 0.34 0.34 0.34 0.33 0.32 0.31 0.28 0.27 0.26 0.24 0.25 0.25 0.25 0.22 0.21 0.20 0.22 0.20 0.17 0.19 0.17 0.20 0.18 0.18 0.26 0.26 0.26 0.26 0.27 0.28 0.30 0.29 0.30 0.29 0.27 0.27 0.25 0.25 0.25 0.28 0.26 0.22 0.29 0.31 0.33 0.33 0.34 0.36 0.37 0.36 0.37 0.37 0.38 0.39 0.40
0.52 0.51 0.50 0.49 0.47 0.46 0.46 0.47 0.47 0.47 0.47 0.48 0.47 0.47 0.47 0.49 0.49 0.51 0.51 0.51 0.49 0.46 0.44 0.45 0.44 0.42 0.29 0.30 0.24 0.22 0.34 0.34 0.35 0.35 0.35 0.35 0.33 0.30 0.29 0.29 0.28 0.26 0.24 0.24 0.24 0.25 0.24 0.23 0.22 0.20 0.18 0.16 0.18 0.17 0.19 0.19 0.24 0.22 0.21 0.22 0.23 0.23 0.23 0.24 0.23 0.22 0.22 0.22 0.25 0.23 0.22 0.24 0.26 0.25 0.23 0.27 0.30 0.31 0.30 0.31 0.32 0.33 0.34 0.34 0.35 0.36 0.37 0.37
0.55 0.54 0.52 0.51 0.50 0.49 0.49 0.48 0.48 0.49 0.48 0.47 0.47 0.46 0.48 0.50 0.50 0.51 0.53 0.53 0.52 0.51 0.50 0.45 0.43 0.37 0.33 0.28 0.25 0.26 0.35 0.33 0.35 0.35 0.35 0.34 0.32 0.32 0.32 0.31 0.29 0.28 0.25 0.22 0.23 0.25 0.25 0.24 0.22 0.19 0.14 0.23 0.16 0.19 0.22 0.26 0.24 0.23 0.23 0.17 0.20 0.22 0.19 0.22 0.21 0.22 0.23 0.22 0.25 0.25 0.23 0.22 0.24 0.23 0.27 0.30 0.31 0.32 0.31 0.30 0.31 0.31 0.31 0.32 0.33 0.34 0.34 0.34
0.58 0.57 0.55 0.54 0.52 0.51 0.51 0.49 0.48 0.48 0.48 0.47 0.46 0.47 0.47 0.49 0.50 0.50 0.51 0.50 0.51 0.50 0.46 0.44 0.43 0.42 0.31 0.24 0.28 0.34 0.35 0.35 0.34 0.33 0.31 0.32 0.32 0.33 0.33 0.32 0.30 0.30 0.28 0.24 0.23 0.24 0.25 0.25 0.23 0.19 0.22 0.19 0.18 0.15 0.21 0.23 0.21 0.20 0.20 0.17 0.17 0.18 0.18 0.23 0.26 0.27 0.25 0.25 0.27 0.27 0.17 0.20 0.24 0.27 0.29 0.31 0.31 0.31 0.30 0.29 0.30 0.30 0.31 0.31 0.32 0.32 0.32 0.33
0.58 0.57 0.55 0.55 0.54 0.52 0.51 0.50 0.49 0.48 0.46 0.46 0.46 0.46 0.46 0.48 0.49 0.50 0.49 0.47 0.48 0.47 0.46 0.49 0.45 0.36 0.29 0.25 0.31 0.35 0.37 0.36 0.34 0.30 0.28 0.31 0.30 0.29 0.32 0.31 0.30 0.30 0.30 0.26 0.26 0.27 0.26 0.26 0.26 0.26 0.30 0.25 0.20 0.29 0.23 0.23 0.24 0.18 0.21 0.22 0.18 0.18 0.18 0.25 0.25 0.27 0.24 0.28 0.28 0.28 0.17 0.19 0.23 0.26 0.29 0.30 0.30 0.29 0.27 0.28 0.28 0.29 0.30 0.30 0.30 0.31 0.31 0.31
0.56 0.55 0.54 0.54 0.53 0.52 0.51 0.49 0.49 0.48 0.46 0.45 0.46 0.45 0.46 0.46 0.48 0.49 0.50 0.48 0.47 0.47 0.49 0.49 0.47 0.34 0.26 0.27 0.33 0.36 0.38 0.36 0.29 0.28 0.29 0.28 0.28 0.26 0.27 0.29 0.28 0.29 0.29 0.28 0.27 0.28 0.29 0.30 0.28 0.25 0.23 0.29 0.28 0.23 0.20 0.20 0.22 0.22 0.17 0.17 0.20 0.17 0.21 0.24 0.27 0.26 0.22 0.26 0.28 0.25 0.18 0.19 0.23 0.25 0.27 0.28 0.28 0.28 0.27 0.27 0.28 0.29 0.29 0.29 0.29 0.29 0.29 0.30
0.54 0.51 0.52 0.52 0.52 0.52 0.51 0.49 0.49 0.47 0.46 0.46 0.47 0.47 0.49 0.49 0.48 0.48 0.52 0.53 0.49 0.52 0.55 0.42 0.34 0.28 0.24 0.21 0.27 0.35 0.33 0.26 0.26 0.29 0.29 0.30 0.29 0.25 0.28 0.27 0.28 0.29 0.29 0.28 0.30 0.31 0.31 0.30 0.24 0.25 0.25 0.25 0.23 0.20 0.18 0.18 0.19 0.21 0.18 0.17 0.16 0.18 0.19 0.20 0.23 0.25 0.26 0.25 0.26 0.24 0.19 0.21 0.22 0.26 0.28 0.29 0.28 0.28 0.28 0.28 0.28 0.28 0.28 0.29 0.29 0.30 0.30 0.30
0.51 0.49 0.50 0.50 0.51 0.51 0.52 0.50 0.49 0.46 0.45 0.46 0.46 0.47 0.51 0.51 0.51 0.50 0.50 0.48 0.45 0.47 0.40 0.33 0.36 0.32 0.19 0.26 0.33 0.25 0.25 0.27 0.30 0.27 0.27 0.31 0.30 0.29 0.28 0.26 0.25 0.25 0.27 0.27 0.27 0.28 0.28 0.27 0.27 0.25 0.27 0.22 0.23 0.19 0.14 0.13 0.13 0.15 0.20 0.16 0.18 0.17 0.18 0.16 0.24 0.25 0.25 0.24 0.21 0.24 0.21 0.21 0.23 0.25 0.26 0.27 0.27 0.27 0.26 0.26 0.26 0.27 0.28 0.29 0.29 0.29 0.29 0.29
0.46 0.46 0.47 0.48 0.49 0.50 0.50 0.50 0.49 0.46 0.46 0.46 0.45 0.46 0.47 0.49 0.49 0.45 0.42 0.42 0.42 0.39 0.35 0.35 0.36 0.31 0.21 0.25 0.19 0.22 0.27 0.24 0.26 0.26 0.26 0.30 0.31 0.30 0.28 0.26 0.26 0.25 0.23 0.22 0.26 0.22 0.25 0.20 0.24 0.17 0.20 0.20 0.19 0.16 0.10 0.08 0.11 0.11 0.13 0.13 0.15 0.18 0.18 0.17 0.17 0.23 0.23 0.24 0.21 0.22 0.21 0.22 0.23 0.25 0.25 0.25 0.26 0.25 0.24 0.25 0.26 0.27 0.27 0.27 0.27 0.27 0.27 0.28
0.46 0.47 0.48 0.48 0.49 0.49 0.49 0.49 0.48 0.46 0.45 0.46 0.46 0.49 0.50 0.47 0.44 0.35 0.31 0.31 0.25 0.21 0.19 0.20 0.21 0.15 0.14 0.19 0.24 0.25 0.24 0.25 0.27 0.25 0.21 0.26 0.29 0.31 0.30 0.29 0.26 0.22 0.18 0.18 0.18 0.21 0.23 0.22 0.22 0.18 0.15 0.16 0.14 0.15 0.13 0.14 0.15 0.14 0.15 0.16 0.16 0.15 0.16 0.18 0.22 0.24 0.24 0.21 0.21 0.22 0.20 0.21 0.21 0.22 0.23 0.23 0.24 0.24 0.24 0.25 0.26 0.26 0.26 0.26 0.26 0.26 0.27 0.27
0.45 0.46 0.47 0.46 0.46 0.45 0.45 0.47 0.48 0.51 0.51 0.43 0.43 0.43 0.41 0.30 0.24 0.21 0.27 0.26 0.22 0.22 0.22 0.23 0.25 0.23 0.23 0.21 0.20 0.24 0.26 0.26 0.20 0.23 0.24 0.26 0.27 0.26 0.25 0.27 0.23 0.23 0.19 0.15 0.19 0.19 0.23 0.16 0.15 0.14 0.15 0.16 0.17 0.18 0.17 0.18 0.19 0.18 0.18 0.18 0.17 0.18 0.19 0.22 0.22 0.25 0.26 0.22 0.19 0.19 0.18 0.18 0.18 0.19 0.21 0.22 0.24 0.24 0.25 0.25 0.27 0.27 0.27 0.27 0.27 0.27 0.28 0.27
0.48 0.49 0.48 0.48 0.47 0.47 0.48 0.50 0.52 0.56 0.58 0.51 0.43 0.37 0.24 0.18 0.16 0.15 0.21 0.24 0.25 0.24 0.21 0.21 0.21 0.20 0.19 0.21 0.22 0.21 0.17 0.18 0.22 0.21 0.25 0.31 0.27 0.25 0.19 0.24 0.18 0.15 0.18 0.20 0.17 0.23 0.20 0.13 0.15 0.18 0.20 0.19 0.17 0.19 0.18 0.15 0.18 0.18 0.17 0.17 0.16 0.18 0.17 0.22 0.21 0.25 0.26 0.20 0.17 0.18 0.17 0.18 0.20 0.22 0.23 0.25 0.26 0.25 0.26 0.27 0.27 0.26 0.27 0.27 0.27 0.27 0.27 0.27
0.51 0.49 0.49 0.47 0.46 0.46 0.48 0.49 0.51 0.57 0.58 0.50 0.43 0.25 0.25 0.27 0.32 0.28 0.22 0.16 0.23 0.25 0.22 0.22 0.23 0.21 0.24 0.22 0.23 0.24 0.22 0.15 0.16 0.20 0.26 0.30 0.23 0.19 0.19 0.18 0.16 0.14 0.19 0.20 0.18 0.16 0.12 0.12 0.16 0.20 0.21 0.19 0.18 0.16 0.15 0.13 0.13 0.14 0.14 0.15 0.14 0.17 0.21 0.23 0.23 0.24 0.24 0.21 0.17 0.20 0.19 0.20 0.21 0.22 0.23 0.23 0.23 0.24 0.25 0.25 0.24 0.24 0.24 0.24 0.24 0.24 0.24 0.25
0.51 0.49 0.48 0.47 0.45 0.46 0.46 0.46 0.45 0.50 0.46 0.30 0.23 0.24 0.24 0.36 0.43 0.38 0.27 0.20 0.19 0.26 0.21 0.20 0.18 0.20 0.20 0.23 0.23 0.24 0.15 0.14 0.14 0.18 0.21 0.27 0.21 0.20 0.20 0.15 0.13 0.14 0.15 0.15 0.12 0.10 0.09 0.11 0.14 0.18 0.19 0.16 0.14 0.15 0.16 0.16 0.16 0.14 0.15 0.15 0.14 0.17 0.16 0.15 0.22 0.23 0.24 0.22 0.19 0.19 0.17 0.16 0.18 0.19 0.18 0.20 0.21 0.21 0.21 0.21 0.22 0.22 0.22 0.22 0.22 0.22 0.22 0.22
0.50 0.49 0.48 0.47 0.46 0.45 0.47 0.44 0.48 0.33 0.29 0.25 0.21 0.23 0.35 0.43 0.41 0.36 0.22 0.14 0.15 0.21 0.24 0.21 0.21 0.20 0.20 0.20 0.24 0.22 0.16 0.17 0.18 0.16 0.24 0.24 0.19 0.24 0.17 0.16 0.14 0.13 0.11 0.12 0.11 0.11 0.11 0.15 0.19 0.19 0.19 0.17 0.16 0.18 0.17 0.17 0.15 0.18 0.17 0.17 0.16 0.17 0.17 0.16 0.16 0.20 0.21 0.20 0.20 0.17 0.13 0.12 0.15 0.13 0.16 0.19 0.20 0.19 0.20 0.21 0.21 0.22 0.22 0.22 0.21 0.21 0.20 0.19
0.50 0.49 0.47 0.46 0.43 0.43 0.42 0.46 0.32 0.27 0.28 0.20 0.20 0.33 0.40 0.40 0.41 0.37 0.17 0.15 0.14 0.16 0.29 0.23 0.24 0.20 0.23 0.31 0.30 0.22 0.20 0.20 0.20 0.21 0.23 0.23 0.20 0.21 0.18 0.23 0.17 0.13 0.15 0.16 0.15 0.14 0.15 0.19 0.21 0.19 0.18 0.18 0.17 0.15 0.16 0.15 0.11 0.12 0.13 0.14 0.14 0.15 0.14 0.16 0.17 0.16 0.13 0.12 0.15 0.13 0.08 0.08 0.12 0.13 0.15 0.16 0.17 0.17 0.19 0.19 0.19 0.20 0.20 0.20 0.19 0.19 0.19 0.18
0.47 0.45 0.43 0.40 0.39 0.37 0.44 0.32 0.24 0.28 0.17 0.14 0.21 0.33 0.39 0.40 0.42 0.43 0.27 0.10 0.09 0.14 0.19 0.13 0.25 0.17 0.29 0.20 0.25 0.24 0.24 0.15 0.22 0.21 0.24 0.26 0.29 0.24 0.23 0.19 0.22 0.13 0.15 0.14 0.14 0.16 0.16 0.18 0.18 0.16 0.15 0.14 0.12 0.09 0.11 0.11 0.06 0.05 0.06 0.14 0.14 0.15 0.15 0.15 0.14 0.15 0.09 0.07 0.12 0.17 0.08 0.06 0.12 0.12 0.14 0.15 0.16 0.16 0.18 0.18 0.19 0.19 0.19 0.19 0.19 0.18 0.17 0.17
0.41 0.38 0.36 0.35 0.33 0.36 0.27 0.13 0.28 0.32 0.17 0.14 0.28 0.32 0.35 0.38 0.44 0.41 0.25 0.10 0.09 0.16 0.13 0.18 0.21 0.19 0.27 0.21 0.21 0.23 0.08 0.12 0.26 0.23 0.23 0.27 0.22 0.27 0.16 0.16 0.21 0.22 0.22 0.19 0.13 0.10 0.16 0.13 0.13 0.13 0.11 0.09 0.07 0.06 0.09 0.10 0.06 0.04 0.09 0.12 0.14 0.14 0.13 0.14 0.14 0.13 0.11 0.16 0.16 0.16 0.15 0.09 0.08 0.11 0.15 0.15 0.15 0.15 0.17 0.18 0.18 0.18 0.18 0.18 0.18 0.17 0.16 0.16
0.38 0.35 0.33 0.34 0.33 0.31 0.22 0.25 0.21 0.11 0.16 0.24 0.30 0.28 0.32 0.38 0.42 0.37 0.19 0.06 0.05 0.20 0.14 0.17 0.19 0.28 0.23 0.22 0.22 0.16 0.16 0.21 0.15 0.18 0.25 0.26 0.26 0.20 0.17 0.15 0.15 0.17 0.18 0.14 0.07 0.10 0.12 0.07 0.07 0.08 0.09 0.08 0.07 0.10 0.11 0.11 0.08 0.06 0.08 0.10 0.10 0.12 0.14 0.13 0.13 0.12 0.14 0.13 0.08 0.13 0.17 0.11 0.08 0.11 0.15 0.15 0.12 0.14 0.15 0.16 0.17 0.17 0.18 0.18 0.17 0.16 0.16 0.16
0.37 0.34 0.32 0.32 0.34 0.30 0.29 0.25 0.19 0.14 0.25 0.29 0.28 0.30 0.32 0.38 0.33 0.21 0.12 0.05 0.14 0.18 0.29 0.15 0.30 0.21 0.20 0.20 0.17 0.19 0.17 0.18 0.12 0.17 0.24 0.25 0.26 0.23 0.15 0.17 0.17 0.15 0.15 0.11 0.07 0.10 0.11 0.10 0.09 0.09 0.08 0.08 0.11 0.12 0.12 0.10 0.06 0.07 0.08 0.11 0.13 0.15 0.14 0.12 0.11 0.12 0.12 0.10 0.05 0.11 0.16 0.09 0.07 0.10 0.11 0.14 0.13 0.13 0.14 0.15 0.16 0.17 0.17 0.16 0.15 0.15 0.16 0.16
0.36 0.33 0.31 0.29 0.32 0.26 0.27 0.26 0.20 0.28 0.32 0.31 0.31 0.31 0.34 0.29 0.23 0.13 0.07 0.04 0.17 0.09 0.18 0.18 0.18 0.15 0.19 0.15 0.16 0.17 0.12 0.13 0.16 0.18 0.20 0.19 0.22 0.25 0.21 0.25 0.18 0.15 0.11 0.12 0.10 0.11 0.13 0.17 0.17 0.09 0.07 0.10 0.13 0.12 0.12 0.11 0.10 0.10 0.07 0.06 0.08 0.08 0.10 0.12 0.13 0.13 0.12 0.05 0.07 0.12 0.13 0.11 0.06 0.08 0.10 0.10 0.11 0.13 0.14 0.15 0.16 0.17 0.17 0.16 0.16 0.16 0.16 0.16
0.36 0.35 0.32 0.29 0.19 0.24 0.32 0.18 0.22 0.30 0.34 0.36 0.36 0.32 0.27 0.20 0.14 0.07 0.04 0.08 0.16 0.15 0.19 0.15 0.14 0.20 0.15 0.13 0.11 0.15 0.13 0.12 0.11 0.15 0.13 0.19 0.16 0.19 0.19 0.15 0.18 0.13 0.11 0.10 0.09 0.10 0.10 0.11 0.11 0.11 0.14 0.10 0.10 0.10 0.12 0.13 0.10 0.08 0.06 0.05 0.05 0.05 0.07 0.06 0.08 0.12 0.05 0.03 0.09 0.12 0.11 0.13 0.07 0.07 0.12 0.14 0.17 0.16 0.15 0.14 0.15 0.16 0.15 0.15 0.16 0.16 0.16 0.16
0.35 0.35 0.35 0.28 0.25 0.30 0.21 0.18 0.26 0.32 0.33 0.38 0.36 0.26 0.18 0.07 0.10 0.06 0.06 0.19 0.07 0.12 0.13 0.13 0.16 0.16 0.15 0.16 0.12 0.11 0.10 0.10 0.11 0.10 0.09 0.11 0.10 0.09 0.11 0.09 0.11 0.06 0.05 0.07 0.06 0.11 0.07 0.08 0.11 0.13 0.15 0.10 0.06 0.05 0.06 0.10 0.08 0.07 0.06 0.05 0.04 0.04 0.04 0.03 0.06 0.04 0.05 0.04 0.08 0.12 0.12 0.09 0.08 0.10 0.13 0.15 0.16 0.16 0.17 0.17 0.16 0.16 0.16 0.16 0.16 0.16 0.17 0.17
0.35 0.36 0.38 0.33 0.31 0.25 0.25 0.29 0.34 0.32 0.34 0.35 0.29 0.24 0.13 0.06 0.04 0.09 0.10 0.13 0.07 0.15 0.12 0.20 0.14 0.14 0.13 0.12 0.10 0.12 0.14 0.07 0.11 0.09 0.10 0.10 0.08 0.10 0.13 0.13 0.14 0.09 0.04 0.07 0.07 0.08 0.09 0.11 0.10 0.10 0.12 0.13 0.09 0.05 0.05 0.05 0.07 0.07 0.06 0.05 0.04 0.04 0.04 0.03 0.04 0.06 0.06 0.07 0.09 0.10 0.12 0.08 0.09 0.11 0.16 0.14 0.16 0.18 0.19 0.20 0.19 0.17 0.16 0.16 0.16 0.17 0.17 0.17
0.36 0.37 0.32 0.35 0.34 0.33 0.33 0.35 0.34 0.37 0.34 0.31 0.20 0.16 0.08 0.05 0.06 0.13 0.11 0.12 0.11 0.19 0.19 0.16 0.17 0.14 0.12 0.09 0.11 0.13 0.08 0.11 0.10 0.08 0.09 0.07 0.07 0.06 0.09 0.12 0.14 0.12 0.11 0.09 0.07 0.07 0.04 0.04 0.08 0.10 0.08 0.15 0.11 0.09 0.09 0.08 0.09 0.08 0.10 0.07 0.06 0.06 0.05 0.03 0.04 0.04 0.04 0.05 0.07 0.10 0.08 0.07 0.06 0.09 0.14 0.16 0.18 0.19 0.20 0.20 0.19 0.18 0.17 0.17 0.18 0.18 0.18 0.17
0.36 0.35 0.34 0.34 0.36 0.37 0.38 0.37 0.38 0.41 0.37 0.25 0.15 0.08 0.05 0.05 0.09 0.08 0.08 0.11 0.14 0.17 0.14 0.18 0.13 0.11 0.08 0.10 0.12 0.13 0.13 0.07 0.11 0.09 0.07 0.06 0.06 0.07 0.07 0.08 0.12 0.14 0.12 0.06 0.08 0.11 0.08 0.07 0.11 0.16 0.14 0.15 0.12 0.13 0.13 0.11 0.12 0.10 0.10 0.09 0.06 0.06 0.11 0.06 0.07 0.07 0.06 0.07 0.06 0.07 0.07 0.09 0.09 0.15 0.17 0.18 0.18 0.18 0.20 0.20 0.19 0.17 0.17 0.17 0.17 0.17 0.17 0.17
0.37 0.32 0.36 0.24 0.27 0.33 0.38 0.40 0.37 0.41 0.32 0.15 0.08 0.06 0.06 0.08 0.07 0.13 0.10 0.19 0.17 0.12 0.13 0.13 0.11 0.08 0.07 0.08 0.11 0.11 0.14 0.09 0.10 0.11 0.09 0.09 0.09 0.07 0.11 0.11 0.11 0.13 0.10 0.06 0.08 0.06 0.08 0.07 0.14 0.15 0.16 0.14 0.13 0.13 0.12 0.13 0.06 0.09 0.09 0.06 0.07 0.11 0.12 0.09 0.09 0.10 0.09 0.08 0.05 0.09 0.08 0.10 0.14 0.15 0.16 0.16 0.16 0.17 0.19 0.18 0.17 0.16 0.17 0.17 0.16 0.16 0.16 0.16
0.26 0.28 0.18 0.21 0.25 0.35 0.38 0.38 0.39 0.32 0.20 0.11 0.07 0.06 0.11 0.12 0.18 0.16 0.17 0.14 0.16 0.17 0.12 0.07 0.07 0.07 0.06 0.05 0.08 0.09 0.10 0.13 0.10 0.09 0.07 0.12 0.07 0.10 0.09 0.11 0.15 0.14 0.15 0.12 0.09 0.12 0.06 0.06 0.13 0.13 0.11 0.15 0.16 0.16 0.15 0.14 0.13 0.11 0.07 0.08 0.11 0.17 0.16 0.12 0.06 0.06 0.06 0.05 0.05 0.08 0.06 0.07 0.08 0.06 0.13 0.13 0.14 0.16 0.16 0.15 0.15 0.16 0.16 0.16 0.15 0.16 0.16 0.16
0.26 0.22 0.20 0.19 0.25 0.35 0.38 0.35 0.32 0.21 0.14 0.09 0.08 0.10 0.16 0.10 0.18 0.17 0.19 0.18 0.18 0.17 0.10 0.07 0.08 0.12 0.06 0.07 0.06 0.09 0.10 0.08 0.08 0.10 0.07 0.10 0.06 0.14 0.09 0.09 0.13 0.14 0.16 0.18 0.09 0.10 0.13 0.05 0.09 0.14 0.13 0.15 0.18 0.17 0.15 0.15 0.15 0.11 0.09 0.13 0.07 0.05 0.06 0.10 0.08 0.05 0.05 0.04 0.05 0.06 0.07 0.07 0.08 0.07 0.10 0.12 0.13 0.14 0.13 0.14 0.14 0.14 0.15 0.15 0.15 0.15 0.16 0.17
0.25 0.17 0.12 0.19 0.27 0.32 0.33 0.29 0.19 0.14 0.09 0.07 0.09 0.07 0.12 0.14 0.19 0.18 0.20 0.20 0.19 0.14 0.09 0.09 0.07 0.09 0.09 0.07 0.08 0.09 0.09 0.06 0.10 0.08 0.07 0.09 0.06 0.11 0.08 0.10 0.09 0.14 0.17 0.17 0.11 0.11 0.14 0.06 0.06 0.13 0.12 0.14 0.14 0.13 0.07 0.10 0.14 0.14 0.14 0.10 0.12 0.10 0.08 0.07 0.08 0.08 0.08 0.06 0.06 0.05 0.06 0.05 0.08 0.08 0.11 0.12 0.12 0.13 0.12 0.12 0.12 0.13 0.14 0.14 0.14 0.15 0.15 0.16
0.20 0.13 0.11 0.22 0.27 0.28 0.29 0.21 0.15 0.12 0.09 0.07 0.09 0.10 0.16 0.13 0.17 0.20 0.21 0.20 0.14 0.12 0.10 0.09 0.11 0.08 0.09 0.09 0.09 0.07 0.09 0.09 0.08 0.08 0.08 0.09 0.07 0.13 0.08 0.12 0.08 0.11 0.16 0.17 0.12 0.14 0.09 0.12 0.05 0.08 0.11 0.12 0.09 0.11 0.09 0.10 0.09 0.11 0.10 0.08 0.08 0.09 0.11 0.10 0.10 0.09 0.08 0.06 0.06 0.06 0.05 0.06 0.09 0.12 0.12 0.12 0.12 0.12 0.12 0.11 0.12 0.13 0.14 0.15 0.15 0.15 0.16 0.16
0.19 0.12 0.12 0.23 0.24 0.27 0.23 0.15 0.11 0.10 0.10 0.14 0.15 0.13 0.16 0.12 0.16 0.17 0.21 0.22 0.17 0.20 0.13 0.11 0.11 0.08 0.09 0.08 0.08 0.11 0.08 0.08 0.08 0.07 0.07 0.07 0.07 0.06 0.11 0.09 0.11 0.08 0.14 0.14 0.10 0.12 0.08 0.09 0.06 0.07 0.06 0.07 0.08 0.13 0.13 0.13 0.13 0.12 0.10 0.09 0.09 0.08 0.07 0.06 0.06 0.10 0.10 0.09 0.07 0.06 0.05 0.06 0.09 0.13 0.13 0.12 0.12 0.12 0.12 0.13 0.13 0.13 0.14 0.15 0.15 0.16 0.16 0.16
0.16 0.09 0.12 0.23 0.24 0.21 0.15 0.10 0.12 0.16 0.12 0.10 0.10 0.14 0.13 0.20 0.15 0.15 0.16 0.18 0.16 0.13 0.17 0.13 0.13 0.11 0.10 0.09 0.10 0.09 0.08 0.08 0.09 0.07 0.08 0.05 0.08 0.07 0.08 0.14 0.11 0.12 0.10 0.06 0.08 0.15 0.12 0.11 0.09 0.06 0.06 0.07 0.10 0.14 0.16 0.16 0.16 0.15 0.13 0.10 0.11 0.10 0.09 0.08 0.06 0.07 0.11 0.10 0.10 0.09 0.07 0.07 0.11 0.14 0.14 0.13 0.12 0.12 0.13 0.14 0.13 0.14 0.14 0.15 0.15 0.16 0.16 0.16
0.13 0.11 0.22 0.23 0.24 0.17 0.12 0.10 0.13 0.12 0.11 0.15 0.20 0.17 0.19 0.16 0.15 0.16 0.14 0.15 0.12 0.15 0.11 0.11 0.10 0.10 0.11 0.11 0.10 0.09 0.10 0.07 0.08 0.06 0.08 0.08 0.07 0.08 0.10 0.11 0.13 0.10 0.13 0.07 0.13 0.12 0.16 0.09 0.07 0.06 0.07 0.10 0.13 0.15 0.16 0.17 0.16 0.14 0.14 0.13 0.11 0.09 0.10 0.09 0.08 0.09 0.08 0.09 0.08 0.08 0.07 0.07 0.11 0.14 0.13 0.13 0.13 0.13 0.14 0.14 0.14 0.14 0.14 0.14 0.14 0.15 0.15 0.15
0.14 0.13 0.15 0.22 0.25 0.17 0.10 0.07 0.08 0.09 0.12 0.15 0.15 0.14 0.18 0.16 0.14 0.13 0.12 0.13 0.12 0.11 0.10 0.11 0.12 0.13 0.10 0.13 0.11 0.09 0.12 0.06 0.10 0.09 0.07 0.10 0.07 0.11 0.12 0.12 0.13 0.08 0.08 0.07 0.06 0.11 0.08 0.09 0.08 0.06 0.06 0.06 0.08 0.12 0.12 0.15 0.15 0.12 0.11 0.12 0.12 0.12 0.12 0.12 0.12 0.12 0.08 0.08 0.08 0.07 0.06 0.07 0.09 0.13 0.14 0.13 0.13 0.13 0.13 0.14 0.15 0.14 0.14 0.15 0.15 0.15 0.16 0.15
0.13 0.15 0.15 0.17 0.21 0.16 0.09 0.11 0.09 0.09 0.10 0.10 0.11 0.10 0.12 0.13 0.17 0.16 0.13 0.12 0.15 0.12 0.11 0.10 0.12 0.13 0.11 0.13 0.10 0.11 0.12 0.08 0.06 0.11 0.10 0.10 0.08 0.14 0.14 0.14 0.15 0.10 0.12 0.12 0.11 0.14 0.09 0.09 0.08 0.05 0.05 0.05 0.05 0.05 0.05 0.06 0.07 0.10 0.12 0.12 0.13 0.12 0.12 0.10 0.08 0.10 0.08 0.09 0.09 0.08 0.07 0.09 0.10 0.12 0.12 0.12 0.13 0.13 0.13 0.14 0.15 0.15 0.15 0.15 0.15 0.15 0.15 0.15
0.11 0.07 0.11 0.13 0.16 0.15 0.16 0.19 0.14 0.10 0.10 0.10 0.09 0.11 0.12 0.10 0.14 0.16 0.16 0.12 0.15 0.14 0.13 0.12 0.14 0.14 0.11 0.11 0.08 0.09 0.08 0.12 0.09 0.08 0.09 0.08 0.11 0.13 0.16 0.16 0.16 0.13 0.12 0.14 0.12 0.13 0.09 0.11 0.09 0.08 0.07 0.06 0.07 0.08 0.09 0.10 0.10 0.08 0.10 0.11 0.11 0.13 0.13 0.12 0.11 0.09 0.08 0.09 0.08 0.09 0.09 0.09 0.09 0.10 0.11 0.11 0.12 0.12 0.13 0.13 0.14 0.14 0.15 0.15 0.16 0.16 0.15 0.15
0.14 0.09 0.09 0.08 0.13 0.14 0.13 0.15 0.12 0.12 0.09 0.12 0.07 0.11 0.09 0.10 0.11 0.12 0.17 0.09 0.13 0.12 0.12 0.12 0.11 0.10 0.09 0.09 0.08 0.08 0.09 0.09 0.11 0.09 0.09 0.09 0.11 0.12 0.17 0.17 0.17 0.17 0.15 0.13 0.14 0.11 0.09 0.07 0.09 0.09 0.09 0.09 0.09 0.09 0.10 0.10 0.09 0.09 0.09 0.09 0.12 0.12 0.12 0.11 0.10 0.08 0.10 0.09 0.08 0.09 0.10 0.09 0.09 0.10 0.11 0.11 0.12 0.13 0.13 0.13 0.14 0.14 0.15 0.15 0.16 0.16 0.15 0.15
0.09 0.14 0.17 0.17 0.09 0.08 0.10 0.11 0.14 0.12 0.13 0.13 0.10 0.13 0.10 0.09 0.09 0.08 0.12 0.14 0.14 0.16 0.09 0.10 0.12 0.12 0.11 0.09 0.10 0.06 0.08 0.07 0.08 0.07 0.10 0.11 0.10 0.11 0.11 0.17 0.15 0.17 0.16 0.12 0.14 0.09 0.08 0.07 0.09 0.10 0.10 0.10 0.10 0.10 0.10 0.10 0.11 0.10 0.10 0.10 0.10 0.12 0.12 0.11 0.10 0.11 0.11 0.09 0.08 0.09 0.10 0.09 0.10 0.11 0.12 0.12 0.13 0.14 0.13 0.13 0.14 0.15 0.16 0.16 0.16 0.15 0.15 0.14
0.16 0.16 0.16 0.19 0.10 0.14 0.13 0.13 0.14 0.12 0.11 0.11 0.10 0.11 0.08 0.08 0.07 0.10 0.10 0.10 0.12 0.11 0.12 0.05 0.08 0.10 0.11 0.12 0.10 0.08 0.09 0.06 0.06 0.09 0.09 0.09 0.09 0.09 0.08 0.10 0.16 0.16 0.14 0.11 0.11 0.12 0.10 0.08 0.10 0.11 0.10 0.09 0.09 0.10 0.10 0.10 0.11 0.11 0.10 0.10 0.11 0.11 0.12 0.12 0.11 0.12 0.12 0.11 0.11 0.10 0.11 0.11 0.12 0.12 0.13 0.14 0.15 0.15 0.14 0.15 0.15 0.15 0.15 0.15 0.15 0.15 0.14 0.14
0.11 0.10 0.11 0.17 0.15 0.14 0.14 0.14 0.12 0.11 0.08 0.11 0.07 0.10 0.09 0.09 0.08 0.10 0.12 0.10 0.06 0.08 0.13 0.08 0.08 0.10 0.11 0.11 0.11 0.08 0.09 0.09 0.08 0.07 0.10 0.10 0.10 0.12 0.10 0.09 0.10 0.12 0.12 0.10 0.10 0.14 0.10 0.08 0.13 0.11 0.09 0.09 0.09 0.10 0.11 0.11 0.11 0.10 0.10 0.10 0.11 0.11 0.12 0.12 0.12 0.12 0.13 0.12 0.12 0.12 0.12 0.11 0.13 0.14 0.14 0.15 0.15 0.15 0.15 0.15 0.15 0.15 0.15 0.16 0.15 0.15 0.14 0.14
0.16 0.17 0.15 0.10 0.09 0.12 0.13 0.12 0.11 0.09 0.08 0.09 0.07 0.09 0.09 0.09 0.08 0.11 0.10 0.15 0.10 0.08 0.10 0.07 0.10 0.11 0.12 0.11 0.11 0.10 0.13 0.12 0.12 0.12 0.13 0.12 0.09 0.13 0.11 0.10 0.12 0.10 0.11 0.11 0.11 0.11 0.11 0.09 0.11 0.10 0.09 0.08 0.09 0.10 0.10 0.10 0.10 0.10 0.10 0.10 0.10 0.10 0.10 0.11 0.11 0.12 0.12 0.10 0.11 0.12 0.11 0.11 0.12 0.14 0.14 0.14 0.14 0.14 0.14 0.14 0.15 0.15 0.16 0.16 0.15 0.15 0.14 0.14
0.19 0.20 0.18 0.12 0.08 0.13 0.10 0.12 0.11 0.09 0.06 0.10 0.10 0.10 0.08 0.09 0.10 0.12 0.07 0.13 0.14 0.15 0.14 0.12 0.13 0.11 0.10 0.10 0.09 0.11 0.14 0.15 0.15 0.16 0.16 0.17 0.17 0.16 0.16 0.15 0.14 0.12 0.12 0.12 0.14 0.12 0.11 0.10 0.09 0.09 0.08 0.08 0.09 0.10 0.10 0.10 0.10 0.09 0.09 0.09 0.10 0.11 0.11 0.12 0.13 0.13 0.13 0.13 0.11 0.10 0.10 0.12 0.13 0.14 0.13 0.13 0.14 0.14 0.15 0.15 0.15 0.15 0.16 0.16 0.15 0.15 0.15 0.15
Wind_Speed
7 6 6 6 6 5 5 4 4 3 3 3 3 4 4 5 5 5 6 6 7 7 7 7 7 7 8 8 8 8 8 8 7 7 7 8 9 10 10 11 11 12 12 12 12 11 12 12 12 11 11 12 13 13 14 14 14 14 14 14 15 15 16 17 17 16 15 15 15 14 13 13 15 16 15 15 15 15 14 15 15 15 15 17 19 19 18 18
7 7 6 6 6 6 5 5 5 4 4 4 4 4 4 5 5 6 6 6 7 7 7 7 8 8 8 8 8 8 8 7 6 6 6 8 9 9 10 11 11 12 12 11 11 11 11 11 12 11 11 12 13 13 13 14 14 14 13 14 15 15 16 17 16 15 13 13 13 12 12 13 16 18 17 16 17 17 16 18 18 17 18 19 20 20 19 19
7 7 7 7 6 6 6 6 5 5 5 5 5 5 5 5 6 6 7 7 7 7 8 8 8 8 8 8 8 8 7 6 6 6 7 8 9 10 11 11 12 12 12 12 12 12 12 12 12 11 11 12 13 13 13 13 14 14 12 13 15 15 16 16 14 13 12 12 12 13 12 12 15 17 17 16 16 17 18 21 20 19 20 20 20 20 19 19
7 7 7 7 6 6 6 6 6 6 6 6 6 6 6 6 6 7 7 7 7 8 8 8 8 8 8 8 8 8 7 6 7 8 9 10 11 11 12 12 12 12 12 12 12 12 12 12 12 11 11 12 13 13 13 14 14 13 13 13 15 14 14 15 13 12 12 12 12 13 12 12 15 16 17 17 17 19 20 21 20 20 20 19 19 19 19 19
7 7 6 6 6 6 6 6 6 6 6 6 6 7 7 7 7 7 7 7 7 7 8 8 8 8 8 8 8 8 7 7 9 9 10 11 11 12 12 12 12 12 12 12 12 12 12 12 11 11 12 13 13 13 14 14 13 13 14 15 15 14 14 15 13 12 13 12 12 14 14 15 16 16 17 15 17 20 21 20 19 19 19 19 19 19 19 19
7 6 6 6 6 6 6 6 6 7 7 7 7 7 7 8 8 8 8 8 8 8 8 8 8 8 8 8 8 8 7 8 9 10 11 12 12 13 13 13 12 13 12 12 12 12 12 12 12 12 12 13 13 13 14 14 14 14 15 15 15 15 15 15 14 14 14 12 14 15 15 15 14 16 16 13 16 19 19 19 18 18 18 18 19 19 20 20
7 7 7 7 7 6 6 7 7 7 7 8 8 8 8 8 9 9 8 8 8 8 9 8 9 9 9 8 8 7 7 8 10 11 12 13 14 14 14 13 13 13 12 12 13 12 12 12 12 13 13 13 14 14 15 15 14 14 15 15 14 13 13 14 13 13 12 11 13 14 14 16 14 17 18 15 17 18 17 18 18 18 18 19 19 19 20 20
7 7 7 7 7 7 7 7 8 8 8 8 9 9 9 10 10 9 9 9 9 9 9 9 9 9 9 8 7 8 8 9 11 12 13 14 14 14 14 13 13 13 12 12 13 13 12 12 12 13 13 14 14 15 15 14 14 14 15 15 14 13 13 12 11 11 10 11 12 11 13 15 14 15 17 17 18 18 18 18 18 19 19 19 20 20 20 21
7 7 7 8 8 8 8 8 8 9 9 9 10 10 11 11 10 10 10 10 10 10 10 9 9 9 9 9 8 8 10 11 12 13 14 14 14 14 14 13 13 13 13 13 13 13 13 13 13 13 13 14 14 15 15 14 14 14 15 15 13 13 13 12 12 12 11 14 13 11 14 16 16 17 18 19 18 18 18 18 19 20 19 20 20 21 21 22
7 7 8 8 8 8 9 9 9 10 10 10 11 11 11 11 11 11 10 10 10 10 10 9 9 9 9 9 8 9 11 12 12 13 13 14 14 13 13 13 13 13 13 13 13 13 13 14 15 14 14 14 14 15 15 14 15 16 15 14 13 13 15 13 13 14 14 16 13 12 17 19 20 20 19 20 19 18 18 18 20 19 19 20 21 21 22 22
8 8 8 9 9 9 9 10 10 10 11 11 11 11 11 11 11 10 10 10 10 9 9 9 8 8 8 8 7 9 11 11 11 13 13 14 14 13 13 12 12 12 12 13 13 13 13 14 15 14 14 14 15 15 14 14 15 16 14 14 14 14 15 15 14 15 15 17 13 11 16 19 20 19 19 19 18 18 18 18 19 19 20 21 21 22 22 22
8 9 9 10 10 10 10 10 11 11 11 12 12 12 11 11 10 10 10 10 9 9 9 8 7 7 7 7 8 9 10 11 12 13 13 13 13 13 13 12 11 12 12 12 13 14 13 14 13 13 14 14 14 14 14 15 15 15 14 14 16 15 15 17 17 18 18 18 17 14 16 19 19 18 18 18 17 17 17 17 19 19 20 21 21 22 22 22
9 10 10 10 11 11 11 11 11 12 12 12 12 11 11 10 10 10 10 10 9 9 8 8 7 8 8 8 9 9 10 11 12 13 14 13 13 13 12 12 12 12 12 12 13 13 13 13 12 12 13 13 13 14 14 15 15 15 15 14 16 16 17 18 18 18 17 18 21 20 19 20 19 18 18 18 18 17 17 18 19 20 21 21 22 22 22 22
10 11 11 11 11 11 12 12 12 12 12 12 11 11 10 10 10 10 10 10 9 8 8 7 7 7 7 7 9 10 11 12 12 14 14 13 13 12 12 12 12 12 11 12 12 12 12 12 11 11 12 12 14 14 14 15 14 15 15 14 15 16 17 18 17 18 17 19 21 19 19 21 20 19 19 19 19 17 17 19 19 20 21 21 22 22 22 22
11 11 12 12 12 12 12 13 12 12 12 11 11 10 10 10 10 10 10 9 9 8 7 7 7 7 7 8 9 11 11 12 13 15 15 13 12 12 12 11 11 11 11 11 11 11 11 11 10 11 13 13 13 13 13 14 14 14 14 15 16 15 17 18 18 18 18 19 20 18 19 21 20 20 20 19 19 18 17 18 19 20 21 21 22 22 22 22
11 12 12 13 13 13 13 13 13 12 12 11 10 10 10 10 10 9 9 9 8 8 8 8 8 7 7 9 10 11 12 12 14 15 14 12 11 11 12 11 10 11 10 10 11 10 11 10 10 11 12 13 12 12 12 14 14 14 13 15 16 15 17 18 17 19 18 18 20 19 19 21 21 20 20 20 19 17 17 18 20 20 21 21 21 21 21 21
12 13 13 13 13 14 14 13 13 12 11 10 9 9 9 9 10 9 8 8 8 8 7 8 8 7 8 10 11 12 12 13 14 15 14 12 11 11 11 10 11 11 10 10 11 11 11 11 11 12 12 12 13 12 12 14 15 16 15 15 17 16 17 17 17 18 17 17 19 18 18 20 21 20 20 20 19 17 18 19 20 20 21 21 21 21 21 22
13 13 13 13 13 13 13 13 12 11 9 8 8 8 8 9 9 8 8 8 8 8 8 9 9 7 9 12 12 12 13 13 14 14 13 12 11 11 10 10 11 11 10 10 12 11 11 12 12 12 13 13 14 13 12 14 15 16 16 15 16 17 16 16 17 18 17 16 17 17 18 19 20 20 20 20 19 18 19 19 20 20 20 21 21 21 22 22
13 13 13 13 13 12 12 12 11 10 8 7 7 7 8 9 9 9 10 9 9 9 9 10 10 8 9 12 13 12 12 12 13 14 13 12 11 11 10 11 11 10 10 11 12 12 12 12 12 13 14 15 15 14 13 15 15 15 16 15 15 15 15 15 16 16 15 15 18 17 17 18 19 20 20 20 20 18 19 19 20 20 20 20 21 21 22 22
13 13 13 13 12 12 12 11 10 9 9 8 8 8 9 9 10 10 11 10 9 8 8 10 10 8 9 12 13 12 12 12 13 14 15 13 11 11 11 11 11 10 11 12 12 13 12 12 13 14 16 16 16 16 15 15 14 14 14 14 14 14 14 15 15 16 15 15 18 17 16 18 19 20 19 19 19 18 18 19 19 20 20 20 21 21 22 23
13 13 13 13 13 12 12 11 11 9 9 8 8 9 9 9 9 9 8 8 9 9 9 10 10 9 10 12 13 13 11 12 13 15 16 13 11 11 12 12 11 12 14 13 12 13 12 12 14 15 16 15 15 15 14 14 14 13 13 13 13 14 14 14 15 17 16 15 18 17 16 18 19 19 19 18 19 19 19 19 19 19 20 21 21 22 22 23
13 13 13 13 13 12 12 11 10 9 9 9 8 9 8 7 7 6 6 7 9 10 10 11 10 10 11 11 13 13 11 12 14 16 16 14 12 11 12 12 11 12 14 13 12 13 12 12 15 16 15 13 13 14 13 13 13 13 13 13 13 14 14 14 15 17 16 15 17 17 16 18 19 18 18 18 19 19 19 19 19 19 19 20 21 22 22 23
14 14 14 14 13 12 11 10 10 9 9 9 8 7 7 6 6 5 6 6 8 10 11 11 11 12 12 11 13 13 12 12 14 16 17 14 12 11 11 11 11 11 12 12 11 11 11 13 15 16 15 12 13 14 13 12 12 12 12 12 13 14 14 14 15 16 16 15 14 14 14 16 17 17 18 18 18 17 18 19 19 18 19 19 20 21 22 23
14 14 14 13 12 11 10 10 10 9 9 8 7 7 6 6 6 5 6 7 8 10 11 11 11 12 13 12 13 12 11 12 13 16 17 14 12 12 11 10 10 10 11 10 9 9 10 13 15 14 13 12 12 13 12 12 12 13 12 11 12 13 13 13 13 13 13 14 12 11 13 15 15 16 17 17 16 16 17 17 17 18 18 19 19 21 22 23
14 14 13 13 12 11 10 10 10 9 9 8 7 7 6 6 6 5 7 8 9 11 11 11 11 12 13 13 13 11 10 12 13 15 15 13 12 11 10 10 10 10 10 9 9 9 10 13 13 12 12 11 10 11 11 11 11 12 11 10 10 11 11 9 10 11 11 13 12 11 12 14 13 14 15 15 15 15 16 15 15 16 17 18 19 20 21 22
14 13 13 13 13 11 10 10 10 9 9 9 8 7 7 7 7 7 8 8 9 11 12 11 11 12 13 14 14 11 10 12 13 14 14 12 11 9 10 11 10 8 8 8 9 9 10 12 11 9 10 10 9 9 9 9 9 10 10 9 9 9 8 7 8 9 9 11 11 10 11 13 13 14 14 14 15 15 16 15 15 15 16 17 18 19 20 21
14 14 13 13 13 11 10 10 10 9 9 9 9 8 8 8 7 7 8 9 9 10 11 11 10 12 12 14 14 10 10 12 12 14 14 12 11 9 9 10 9 9 8 8 9 9 9 11 11 10 10 9 9 9 9 9 8 9 9 9 10 9 6 6 7 8 9 10 11 10 10 12 14 14 13 13 14 16 16 16 16 16 16 17 18 19 20 21
14 14 14 13 12 10 9 9 9 9 9 9 8 8 8 7 6 7 7 7 9 10 9 10 10 11 11 13 14 10 9 11 11 12 13 11 10 9 9 10 8 9 10 7 7 8 8 10 11 10 10 10 9 9 10 9 9 9 10 10 10 8 6 6 7 8 10 10 12 12 11 12 14 14 14 14 15 17 17 17 17 16 17 18 19 20 21 22
14 13 14 13 11 10 10 9 9 9 9 8 8 7 6 5 5 6 7 6 8 8 8 9 9 11 11 12 13 12 11 11 10 10 11 11 11 10 9 10 9 10 12 10 8 7 8 9 9 9 10 10 9 9 10 10 10 11 11 10 10 9 8 8 7 9 10 11 12 12 11 12 15 15 14 15 16 17 17 17 17 17 17 18 19 20 21 22
13 13 14 13 11 10 10 9 9 8 8 7 6 5 4 4 4 6 7 6 6 7 7 8 8 10 11 10 11 12 11 11 11 11 11 11 12 12 10 10 11 10 11 12 10 9 9 9 9 9 10 10 9 10 10 10 12 13 12 11 10 10 9 9 9 9 10 12 13 12 11 12 15 16 15 15 17 17 17 17 18 17 18 19 20 21 22 23
13 13 14 13 11 10 9 9 8 7 7 6 4 3 3 4 5 5 5 5 5 6 7 8 8 9 10 9 9 11 11 11 12 12 12 11 12 13 12 11 11 10 10 11 11 10 11 11 10 9 10 11 10 11 11 12 13 13 12 12 10 11 11 10 11 10 10 12 13 12 12 12 14 17 16 16 18 18 17 17 17 18 19 20 20 22 22 24
13 13 13 12 11 10 9 8 7 6 6 5 3 3 4 5 7 5 4 5 5 6 6 7 7 8 8 9 9 10 9 11 12 12 11 10 11 12 11 10 9 10 10 10 10 10 10 10 11 10 11 13 12 12 13 13 14 14 13 12 11 11 11 11 12 11 11 13 13 13 14 14 16 17 17 17 18 18 19 19 18 18 19 20 21 22 23 24
12 12 12 12 11 10 8 7 6 5 5 3 3 4 5 5 5 4 4 5 4 4 5 6 7 8 8 9 9 9 9 10 11 12 10 10 11 10 11 11 10 9 9 9 10 10 10 11 13 12 12 13 12 12 13 14 14 15 14 12 11 11 11 12 13 13 13 14 14 15 15 15 17 18 18 18 18 18 19 20 20 20 20 21 22 23 24 25
11 11 10 11 11 10 8 7 6 5 4 3 4 5 6 5 3 3 4 4 4 4 5 6 7 8 9 9 8 8 10 10 10 11 10 10 11 11 11 12 12 10 9 10 10 10 10 10 12 13 12 14 13 13 13 13 14 15 14 12 12 11 11 12 13 13 15 16 16 16 14 14 16 18 19 19 19 19 20 21 21 22 22 23 23 24 25 27
10 10 10 11 11 10 9 6 5 4 4 4 5 6 5 4 3 4 4 3 4 5 6 6 8 9 9 9 8 8 9 9 9 10 10 10 10 10 10 11 12 12 10 10 10 10 10 10 12 13 13 14 14 14 14 13 14 15 15 14 14 13 11 13 14 14 16 17 17 16 14 15 17 18 19 19 20 20 21 22 22 23 23 23 24 26 26 28
8 9 10 11 11 10 9 6 5 5 4 5 7 6 5 4 4 5 5 5 5 5 6 7 8 9 8 8 9 9 9 9 9 9 10 10 10 10 10 10 11 12 11 10 11 11 11 11 12 13 13 14 14 15 15 14 14 16 16 15 16 14 12 14 16 16 16 16 16 15 16 19 19 19 19 19 21 21 21 23 23 24 24 24 26 27 28 29
8 9 10 12 12 10 9 7 6 5 6 7 7 6 5 5 5 5 5 6 6 6 7 7 7 7 7 8 8 9 9 9 9 9 9 9 10 11 11 11 11 12 12 11 11 12 12 12 13 13 13 14 14 15 17 16 15 15 16 16 16 15 14 14 15 17 16 16 17 16 17 19 19 19 20 20 21 22 22 24 25 25 25 26 28 28 29 30
8 9 10 12 12 10 8 8 7 6 8 9 8 7 7 7 6 6 6 6 6 7 8 7 6 7 7 7 7 8 9 9 9 10 9 9 10 10 11 11 11 13 13 13 12 13 13 13 14 13 13 15 16 16 17 17 17 15 15 16 16 15 15 15 15 16 17 17 18 18 18 19 18 19 20 20 21 22 24 24 25 26 27 27 29 29 30 30
8 8 9 12 12 10 8 8 7 8 9 8 7 8 7 7 7 6 6 7 6 7 8 6 6 7 7 7 7 7 9 9 9 9 9 10 10 10 11 12 12 14 15 13 13 14 14 13 14 15 15 16 17 17 16 17 18 17 17 18 17 15 14 15 15 15 16 17 18 19 19 18 19 19 20 21 22 22 24 25 26 27 28 28 29 30 30 31
7 7 8 10 10 9 8 9 10 10 9 7 7 8 8 7 7 7 7 7 6 7 7 6 7 7 7 7 7 8 9 9 9 10 10 10 10 11 11 12 12 14 15 14 14 15 15 14 14 17 18 17 17 17 16 16 17 17 17 18 18 17 16 16 16 15 15 16 17 19 20 19 20 21 20 21 22 22 24 26 26 27 28 28 29 30 30 31
7 7 8 10 10 7 8 10 11 9 8 8 8 8 8 7 7 7 7 7 7 7 7 7 7 7 7 8 8 8 9 10 10 10 10 11 11 11 12 12 12 14 15 15 15 15 16 15 15 17 18 17 17 17 17 16 16 16 17 17 17 18 17 16 17 17 16 15 16 18 21 22 23 22 21 22 22 24 26 26 27 28 28 28 29 29 30 30
8 7 7 10 10 8 10 10 9 8 8 8 8 8 8 8 8 8 8 8 8 8 8 8 8 8 7 8 8 8 9 10 10 10 10 11 11 11 12 13 13 14 14 15 16 16 16 15 15 17 18 17 18 18 17 16 16 16 17 17 17 17 17 15 16 17 17 17 18 18 20 23 24 22 22 23 24 26 26 26 27 28 27 28 28 29 29 30
8 7 7 9 9 9 11 9 8 8 9 8 8 8 8 8 8 8 8 8 8 8 8 8 7 8 8 8 8 9 9 9 10 10 11 11 12 12 12 14 14 14 15 16 16 17 17 16 17 19 19 18 19 19 18 17 17 17 18 18 18 18 18 16 16 17 18 18 18 18 19 23 25 24 24 25 26 26 27 26 27 27 27 28 28 29 30 30
9 9 9 9 8 8 9 8 7 8 8 8 9 9 9 9 9 8 8 8 7 7 8 8 7 8 8 8 9 9 10 10 10 11 11 11 12 12 13 14 15 15 15 16 17 17 17 17 18 20 20 20 19 19 19 19 19 19 20 19 18 18 18 18 18 18 18 18 17 17 20 23 25 25 25 26 27 27 27 28 28 28 28 28 29 29 30 31
8 9 10 11 10 9 9 8 8 8 8 9 9 8 8 9 8 8 8 8 8 8 7 7 8 8 9 9 10 10 11 11 11 12 12 13 13 14 14 14 15 15 16 16 17 17 17 17 18 18 18 19 19 20 21 21 20 20 20 20 19 18 17 18 18 17 18 19 17 17 22 25 26 25 25 26 26 27 28 28 28 28 28 29 29 30 31 32
7 7 8 10 12 11 11 10 10 10 9 9 9 8 9 8 8 8 8 8 8 8 9 8 8 9 10 10 10 11 12 12 12 12 13 13 14 15 15 15 15 16 16 16 17 17 17 18 18 16 16 18 19 20 21 20 21 22 21 20 20 19 18 18 18 17 18 19 19 21 24 28 28 27 26 26 25 26 28 28 28 28 28 28 29 30 31 32
7 7 7 8 9 11 11 10 10 10 9 9 9 9 9 8 7 8 8 8 8 9 9 9 9 9 10 10 10 11 12 13 13 13 13 14 15 16 16 16 16 17 16 17 17 18 18 19 19 17 18 19 20 21 21 20 21 22 22 21 19 19 18 18 19 20 19 19 22 24 24 26 29 28 27 27 26 27 28 28 28 28 28 28 30 31 31 31
7 7 7 7 8 9 9 9 10 11 10 9 9 9 9 9 8 8 8 8 9 9 8 9 10 10 10 10 10 11 12 13 14 14 14 14 16 17 18 17 17 17 17 18 19 18 18 19 19 18 20 22 21 22 22 20 21 22 22 21 20 19 19 20 21 21 19 20 24 26 24 26 29 29 28 28 28 28 29 29 28 28 28 29 30 30 31 32
8 8 8 9 9 9 9 10 11 12 11 10 9 9 9 9 8 7 7 8 9 9 9 9 10 11 11 10 11 11 12 13 14 14 14 15 16 17 18 17 17 18 18 18 19 19 18 20 20 19 21 23 23 22 21 20 21 22 22 22 20 19 19 21 22 21 20 23 27 27 27 28 29 28 28 29 29 29 29 29 28 28 29 29 30 31 32 33
8 8 9 11 11 10 10 10 11 11 10 9 9 9 8 8 8 7 8 9 8 9 10 9 9 10 11 11 11 11 12 12 13 15 14 15 16 17 17 17 17 19 19 19 19 20 20 20 20 20 22 23 23 22 21 20 21 23 24 23 21 20 20 21 22 21 22 25 27 27 28 29 28 28 28 29 29 29 28 28 29 29 29 30 31 32 33 33
8 9 10 12 11 9 10 10 10 10 9 9 9 8 8 8 7 7 9 9 8 8 9 9 9 10 12 12 12 12 13 12 13 14 14 15 16 17 17 17 17 19 20 19 20 21 20 21 22 22 22 23 23 23 23 23 24 25 24 23 21 20 20 20 21 21 21 24 25 26 27 28 27 26 27 28 28 28 28 29 29 30 30 31 31 33 34 34
10 10 11 11 10 9 10 10 10 10 9 8 8 8 8 7 7 8 9 9 9 9 9 9 9 11 12 13 13 13 13 13 14 15 15 15 17 17 18 18 17 18 19 19 20 21 20 21 22 22 22 23 24 23 24 24 25 23 22 21 20 20 20 21 22 22 22 23 24 25 26 28 27 26 27 29 28 28 29 30 30 31 31 31 32 33 34 35
Wind_Direction
12 14 16 17 15 12 11 8 4 356 345 330 318 312 306 304 302 300 299 298 298 297 297 296 296 296 293 294 295 296 296 290 282 283 279 277 280 282 283 282 283 285 284 282 281 281 279 277 277 276 273 269 266 264 262 260 262 263 261 261 262 261 261 262 263 265 264 265 269 274 267 251 259 269 267 274 288 287 286 289 285 286 285 284 283 283 282 279
18 20 21 21 20 19 16 13 9 2 354 344 335 327 320 316 311 308 306 304 304 301 300 298 297 295 294 295 295 297 297 285 282 289 284 282 286 286 286 285 286 287 285 283 282 282 279 275 276 278 274 269 268 265 263 262 261 262 264 265 263 261 262 265 269 268 263 259 263 271 270 267 269 270 271 273 284 289 288 288 288 289 288 286 287 286 284 282
22 24 23 21 21 21 20 18 15 10 4 357 350 341 333 326 319 315 310 307 306 304 304 301 299 298 296 295 295 298 293 281 284 288 286 288 291 290 289 289 287 287 285 281 280 279 276 275 274 274 273 270 268 267 265 264 262 262 266 269 267 262 264 272 275 266 256 254 263 271 272 284 282 273 270 269 282 292 287 285 287 289 289 289 289 287 285 283
26 25 22 20 18 18 17 16 14 9 4 357 351 345 338 332 326 320 314 309 307 306 306 304 302 301 299 298 297 295 288 283 285 283 285 290 292 291 290 289 288 288 285 280 279 277 275 276 274 272 272 271 272 270 265 264 263 265 265 264 266 264 268 275 270 260 260 262 264 269 274 283 285 281 274 270 280 286 283 284 285 285 287 288 288 287 286 285
25 23 20 16 13 12 10 9 6 2 357 352 347 343 339 335 331 325 320 314 310 308 307 305 303 300 298 299 298 294 288 287 285 283 288 292 293 293 291 290 289 289 286 282 280 279 279 278 276 276 274 272 274 273 268 265 262 266 267 264 266 265 268 272 268 263 264 266 269 275 278 274 277 289 285 279 279 277 279 282 282 283 285 285 286 286 286 286
24 22 18 13 10 8 6 4 1 358 353 349 345 341 339 336 332 327 322 316 312 308 306 304 303 300 299 299 299 298 293 287 286 289 292 294 295 295 293 290 289 290 288 285 283 283 283 282 279 278 276 273 272 270 270 272 267 266 271 273 274 271 268 269 270 270 266 271 278 276 274 271 276 287 289 290 281 276 278 279 280 283 283 284 285 285 286 287
20 18 16 11 9 7 4 1 356 353 349 346 343 340 337 334 330 326 320 316 311 308 305 304 303 301 301 301 300 304 302 291 291 294 295 297 297 295 294 290 288 291 290 288 288 285 285 287 284 279 277 276 272 270 271 275 272 265 271 277 277 274 270 267 267 269 270 276 277 273 274 278 278 279 284 288 281 278 279 280 281 283 283 284 286 287 287 287
13 12 11 8 5 2 358 355 351 347 344 342 339 336 333 330 328 323 319 315 311 308 305 303 302 300 301 299 297 304 305 296 295 296 297 299 298 297 294 290 288 290 289 289 288 284 285 288 286 282 279 276 273 272 274 275 274 269 270 273 272 271 267 262 263 263 266 271 273 280 284 283 279 279 284 284 280 280 280 282 283 283 285 287 288 288 287 287
10 8 6 2 358 354 350 347 343 340 338 336 333 331 329 327 324 320 317 314 311 308 305 304 302 301 302 298 295 302 301 297 298 298 298 300 300 298 293 290 289 289 287 288 288 283 282 283 283 281 277 275 275 276 277 275 273 271 270 270 265 262 260 258 264 264 264 268 272 282 280 276 277 281 286 284 280 280 281 284 285 285 288 288 288 288 287 287
6 2 360 356 352 348 344 340 337 334 333 332 330 328 326 325 322 319 316 313 311 309 307 305 302 303 303 300 301 300 298 301 302 299 301 303 303 300 294 291 290 289 287 286 287 284 281 281 280 279 276 276 278 278 277 273 271 271 268 269 263 260 265 263 263 265 269 273 272 275 278 280 281 280 281 281 279 279 282 286 286 287 289 289 288 288 288 287
358 355 353 349 346 344 341 338 335 333 331 330 329 328 327 326 324 322 319 316 314 311 309 307 305 308 307 310 312 303 301 306 306 306 306 306 305 301 295 292 291 292 290 286 285 283 283 281 280 279 277 277 279 280 278 274 273 272 270 272 273 271 274 272 263 263 273 275 269 269 280 289 288 282 278 277 279 280 283 287 287 288 288 288 289 289 289 288
349 347 345 343 341 339 338 336 333 332 331 331 330 329 330 330 329 327 325 323 320 315 311 308 305 306 312 323 320 305 306 312 312 313 310 306 305 300 294 293 294 294 291 288 286 286 286 285 285 283 279 278 279 280 278 278 276 274 275 274 276 278 276 275 269 270 276 269 264 272 282 289 287 279 276 276 278 282 285 288 288 289 288 289 289 289 289 289
342 340 339 338 337 335 335 333 332 332 331 331 330 330 331 331 331 329 329 327 324 321 316 310 304 303 312 319 314 308 311 315 317 319 316 310 305 300 296 295 296 294 291 289 287 288 289 289 289 283 282 282 279 279 280 282 280 276 279 275 274 280 280 281 277 274 277 268 269 277 278 280 281 275 275 276 278 283 288 288 288 289 289 289 289 289 289 289
336 335 334 335 334 333 332 331 330 330 330 330 329 331 331 331 331 330 330 328 326 325 321 317 312 313 320 313 310 315 315 316 320 321 319 315 309 304 302 300 299 296 294 293 291 290 290 291 292 287 287 287 280 281 284 285 283 278 279 279 278 278 278 287 287 279 277 276 278 279 275 276 276 275 276 277 279 283 287 288 289 290 290 290 290 289 289 289
332 331 330 331 330 329 328 327 326 327 327 328 329 330 330 331 331 330 330 329 328 325 320 320 318 320 324 314 312 318 318 319 321 321 320 318 314 309 306 305 303 301 298 296 294 293 293 295 299 294 291 293 289 286 286 285 285 283 279 280 282 279 276 285 293 286 275 278 287 282 276 278 276 276 277 278 281 284 286 289 290 291 291 291 291 290 289 289
329 328 328 327 326 325 324 324 324 325 326 326 328 329 330 330 329 332 332 329 330 326 322 321 320 324 321 312 314 320 321 320 321 322 321 319 315 311 310 308 307 307 303 301 300 298 298 299 301 301 299 300 295 288 288 289 287 287 281 279 283 283 281 282 289 293 281 278 289 284 274 277 278 276 277 279 282 285 287 289 290 291 292 291 291 290 289 289
328 328 327 325 324 322 321 321 322 324 324 327 332 334 336 334 329 331 332 334 336 332 333 328 322 328 327 320 319 321 322 321 322 324 321 319 316 314 314 310 309 309 304 305 308 304 302 301 297 298 302 300 293 289 292 291 288 288 287 285 285 284 285 283 283 293 291 282 286 286 278 278 279 277 278 281 283 286 287 288 289 290 290 290 290 290 290 290
330 329 329 327 326 324 324 324 325 324 323 326 334 340 345 343 337 335 331 330 330 329 334 333 328 325 325 327 323 318 322 325 326 327 323 320 319 319 317 313 310 308 307 307 310 307 303 303 299 295 300 301 297 298 293 286 284 285 286 286 286 287 287 285 284 287 292 288 285 286 283 281 281 281 282 283 284 287 287 287 288 288 289 289 289 290 290 290
333 332 331 330 330 329 329 329 329 325 320 318 321 331 340 345 348 348 347 344 337 330 326 328 332 324 318 327 326 319 325 333 333 333 330 323 319 321 322 318 313 311 309 305 308 310 305 304 305 301 301 301 299 297 290 283 281 279 282 283 283 287 288 288 288 286 289 293 290 287 284 282 283 284 284 284 286 288 287 288 288 289 290 290 291 291 291 291
333 332 331 331 331 330 329 329 328 324 319 312 311 317 324 333 337 338 348 356 350 343 337 333 337 335 326 328 331 327 327 335 340 340 336 325 317 323 324 319 318 318 310 302 304 308 308 308 309 304 299 299 300 297 294 294 292 286 286 289 288 288 290 290 287 283 286 292 292 290 287 286 286 286 286 286 289 289 288 289 290 291 291 291 292 292 292 292
333 332 330 330 329 328 327 326 326 323 319 312 309 312 311 317 324 322 335 351 348 353 354 344 341 338 331 329 334 334 328 333 342 343 339 330 320 320 320 318 317 314 307 303 304 306 311 313 310 306 298 298 304 302 300 303 303 297 291 292 295 292 290 292 289 287 290 292 290 290 292 292 292 290 289 287 289 290 288 289 290 290 292 292 292 292 292 293
332 330 329 328 327 326 325 326 327 323 321 316 314 316 312 313 320 320 329 339 342 350 353 348 346 340 331 331 336 337 335 335 337 339 339 336 331 322 319 322 318 311 309 309 306 306 314 315 310 309 302 300 308 309 307 306 303 300 295 291 296 297 291 292 296 296 296 293 289 290 295 297 296 295 293 291 292 292 290 290 290 290 292 292 292 292 292 293
331 329 329 328 326 326 325 326 329 326 323 321 320 321 320 319 321 326 336 337 338 343 345 345 346 342 335 332 334 340 348 338 328 333 336 334 334 329 325 327 323 318 321 320 311 307 313 313 310 310 308 309 315 315 313 309 304 303 301 296 297 300 295 291 296 300 300 298 292 293 299 299 299 301 302 300 298 297 294 294 294 293 293 293 293 294 294 294
330 330 329 328 328 327 324 325 328 328 324 324 325 318 315 320 318 323 331 334 335 335 336 335 338 341 336 330 330 337 346 341 331 333 335 333 330 328 328 327 327 327 328 331 331 327 321 314 312 313 316 319 319 318 319 314 309 306 304 303 301 299 297 295 294 297 307 308 299 300 306 300 298 301 303 305 305 303 301 300 301 299 298 299 298 298 298 298
330 330 330 330 329 325 322 322 325 325 323 324 320 311 311 315 311 312 319 327 331 329 330 330 333 339 336 334 332 327 334 341 341 337 335 337 333 327 328 329 330 327 322 331 341 340 331 322 320 321 324 329 325 323 325 319 316 315 309 306 304 299 300 300 294 299 311 307 298 302 309 305 304 304 304 309 311 309 308 306 305 304 303 303 302 302 302 303
331 331 331 330 328 323 319 320 321 320 321 319 312 306 307 305 301 304 314 327 330 328 332 332 333 338 338 339 334 326 333 336 340 344 343 343 338 333 334 333 335 329 317 330 342 342 339 336 339 340 340 345 346 341 337 337 338 331 323 321 318 309 304 296 292 304 311 306 303 304 308 312 313 310 308 312 314 312 313 311 307 306 306 305 305 306 306 307
332 332 331 330 328 325 319 318 319 317 317 313 307 304 301 299 297 301 317 330 328 327 335 335 336 342 344 345 342 339 338 330 336 350 352 349 346 350 351 344 348 346 334 344 356 356 353 354 2 5 5 6 5 359 349 353 358 342 337 339 329 321 313 301 300 307 308 314 319 311 309 316 315 313 314 315 315 314 314 313 310 308 306 306 308 309 309 310
333 333 332 331 331 330 323 320 320 318 315 309 308 306 300 299 296 307 328 332 323 328 335 334 341 348 348 353 358 1 347 339 347 351 353 2 3 10 12 4 8 8 2 11 15 9 9 12 15 17 17 13 8 359 349 357 359 339 339 341 331 328 323 320 323 317 314 320 318 307 306 313 312 316 320 317 315 315 312 311 311 308 306 308 309 310 311 313
335 335 335 333 331 332 329 325 322 319 316 313 313 310 305 308 309 324 338 329 326 335 337 338 343 346 349 355 2 5 0 2 8 1 5 20 21 25 26 19 28 32 24 31 37 25 19 20 20 21 17 6 356 349 349 1 352 335 341 343 337 338 333 331 330 321 321 320 311 306 304 309 312 314 316 315 314 313 312 313 312 308 307 309 311 312 313 315
337 338 339 337 331 329 330 329 327 324 323 321 320 319 324 334 332 341 343 330 335 341 342 347 347 347 355 359 360 6 13 18 19 20 28 33 29 31 34 31 35 39 31 31 35 24 14 12 14 17 10 356 347 345 351 357 346 340 347 345 337 337 335 331 327 324 328 319 310 308 307 308 313 313 312 313 315 315 316 317 315 310 309 309 311 313 314 316
339 339 341 341 337 333 332 332 330 328 330 330 330 342 358 349 344 354 347 332 342 347 350 355 353 359 7 10 10 13 23 27 25 31 35 32 30 30 29 28 28 30 26 23 23 16 12 12 8 5 1 357 354 350 349 350 349 348 347 344 338 332 330 330 327 328 328 316 310 312 314 310 308 310 311 310 314 318 317 316 314 310 308 309 311 313 315 316
341 342 346 348 346 343 340 336 335 336 336 341 351 354 359 352 350 358 345 336 346 352 358 1 1 10 16 22 27 23 28 34 32 37 38 35 35 34 33 29 23 24 20 15 14 11 10 8 0 355 357 1 0 352 347 346 349 349 345 347 344 333 331 327 322 324 319 312 314 317 318 312 304 308 311 308 312 317 315 314 312 308 307 308 310 313 315 317
346 349 354 356 356 354 351 346 347 350 346 357 7 352 2 5 353 352 349 351 2 3 11 16 14 24 33 36 35 30 36 38 34 36 38 39 38 34 33 29 23 22 17 12 10 6 1 356 357 357 354 356 358 353 347 342 344 345 343 345 341 335 334 322 317 323 318 312 315 317 315 311 310 313 314 312 313 316 316 316 313 308 307 308 310 313 315 316
354 358 1 3 4 2 1 360 358 4 11 25 19 6 18 21 2 13 15 11 24 25 29 32 28 34 43 45 39 35 41 40 36 37 33 34 35 27 23 21 19 20 16 13 9 5 2 352 353 356 351 350 352 349 344 340 341 341 341 343 337 331 328 319 316 318 316 313 315 316 314 311 313 316 316 316 317 317 317 317 316 313 310 311 313 314 315 315
360 5 9 9 7 5 8 11 10 21 38 42 31 26 37 40 38 53 46 38 44 40 38 42 46 46 41 39 37 36 41 37 36 39 32 30 31 24 19 15 14 16 16 12 3 1 360 346 343 349 349 351 348 341 341 344 341 338 341 343 334 326 321 318 314 310 313 317 316 315 312 310 312 314 316 319 319 316 315 315 316 314 312 313 313 313 313 314
9 14 15 11 9 10 13 18 25 35 51 51 40 38 54 65 69 72 65 59 59 56 48 43 48 50 37 33 34 31 33 34 33 33 29 28 26 20 16 11 10 13 14 11 3 359 356 345 341 345 348 351 348 342 343 343 338 337 342 338 328 323 322 320 316 316 321 320 316 315 313 314 316 316 318 321 318 315 313 312 311 311 312 312 311 311 311 312
17 19 19 15 13 14 18 29 41 49 54 53 52 58 69 73 76 76 68 64 64 63 60 50 46 47 39 35 31 23 25 30 30 29 25 22 19 15 11 6 6 9 7 4 360 356 354 346 340 342 342 341 343 344 343 342 339 339 338 333 330 328 327 324 321 323 326 319 314 315 313 314 317 316 318 320 316 313 311 309 309 310 310 309 308 309 310 311
20 22 23 18 16 19 28 39 49 60 61 56 62 73 74 73 75 75 70 68 66 60 60 57 51 49 47 43 33 21 24 27 23 25 24 19 15 13 10 3 3 5 1 358 357 353 353 347 339 339 340 337 339 340 336 336 339 338 334 333 335 331 324 324 324 322 323 318 316 316 315 313 312 312 316 316 312 310 310 310 310 309 307 306 306 308 309 311
20 23 23 17 19 29 38 46 55 63 62 60 69 76 76 75 73 73 72 68 66 62 59 58 53 50 49 48 38 25 27 30 25 23 22 17 12 11 10 2 357 357 355 355 354 348 348 347 338 337 338 336 338 338 332 331 334 335 334 335 336 330 321 321 321 318 318 317 317 319 321 317 311 312 314 311 309 309 310 312 312 307 305 306 307 308 310 312
24 29 26 17 22 33 41 51 56 57 59 67 78 78 76 78 71 65 67 64 61 62 60 57 54 52 47 45 40 31 29 29 24 21 17 12 9 4 2 359 353 351 351 353 352 346 345 344 335 335 339 336 334 333 330 329 330 332 333 334 333 331 325 321 318 316 317 317 317 319 320 316 313 315 313 310 310 309 310 312 312 308 307 308 308 310 311 313
33 35 27 19 23 34 46 53 53 53 61 70 75 75 74 77 70 59 59 62 62 62 64 64 58 54 50 42 34 28 26 22 17 16 11 6 6 360 354 354 350 348 349 350 349 345 343 340 333 333 336 334 329 328 327 326 327 329 329 329 330 330 329 324 319 316 317 315 314 316 316 314 315 317 315 313 312 310 310 311 311 310 309 309 310 311 312 314
41 39 26 23 33 50 58 54 46 53 67 69 70 72 71 74 69 58 55 60 61 59 59 59 53 48 45 37 29 25 23 17 11 10 5 360 360 355 350 350 349 347 347 345 343 340 340 340 335 331 331 330 328 328 329 328 329 330 327 326 329 330 330 324 316 315 317 316 314 316 315 315 317 318 316 314 312 312 312 311 310 310 311 311 312 313 314 315
45 42 31 28 39 58 62 55 45 55 66 69 70 69 67 71 68 60 58 57 56 55 52 48 44 42 36 27 25 22 16 11 5 3 359 354 352 349 347 349 349 347 346 343 340 339 339 339 335 331 330 331 330 330 330 331 332 329 325 325 326 326 326 321 313 313 315 314 315 317 315 316 319 319 316 314 314 315 314 311 310 311 312 313 313 313 315 316
52 47 39 34 40 56 62 60 62 66 69 72 72 66 64 69 66 62 61 55 51 55 52 43 37 35 29 23 23 16 9 6 1 358 356 353 350 347 346 348 348 346 344 342 340 339 338 337 337 335 335 335 335 333 331 329 328 324 322 323 323 325 328 324 317 316 315 312 314 316 312 315 321 322 318 317 318 317 314 311 311 312 312 313 314 314 315 316
52 47 43 41 46 59 64 67 75 77 74 74 72 65 65 67 64 64 63 56 52 53 49 39 32 28 23 20 17 10 6 3 358 355 355 351 347 346 344 343 345 344 341 339 341 340 337 336 338 337 334 333 332 330 328 326 325 323 322 321 321 322 323 321 319 317 313 312 314 312 310 315 321 322 320 320 319 317 314 312 312 312 312 313 314 315 316 316
50 47 46 46 50 60 66 68 73 77 78 78 71 65 67 67 61 60 60 54 47 45 42 33 24 22 19 16 12 5 2 1 358 357 355 349 346 346 344 342 342 342 341 340 341 342 340 337 335 333 328 325 324 323 324 326 323 320 320 318 317 318 320 322 319 312 309 312 312 308 309 315 318 320 321 320 319 317 316 314 312 312 312 313 314 315 316 316
54 51 51 53 54 59 62 62 68 73 77 78 74 69 67 63 56 53 52 49 43 39 35 27 21 18 13 11 9 1 357 357 357 356 353 347 344 345 344 343 342 340 342 342 341 342 342 335 333 331 325 323 323 322 323 324 319 315 316 316 314 315 317 317 311 307 311 314 311 310 313 314 315 319 321 320 319 319 318 316 314 312 312 313 315 316 315 315
56 60 59 62 64 65 64 66 72 73 70 71 72 70 65 59 55 51 44 40 36 31 28 21 14 10 5 4 6 1 355 356 354 351 351 348 345 347 346 344 343 342 343 344 341 343 342 334 332 333 327 324 324 322 321 321 318 316 314 313 313 312 311 308 305 306 309 307 307 312 315 313 314 319 320 319 320 319 318 317 316 315 315 315 316 316 315 315
69 71 62 63 71 75 76 76 78 75 67 64 65 64 64 61 55 47 36 31 27 21 23 18 4 360 358 358 3 1 353 354 352 347 348 348 346 347 346 344 344 344 344 344 341 342 341 335 334 335 331 327 325 323 322 322 320 319 315 312 312 310 306 304 306 307 305 302 304 310 311 311 314 318 318 318 318 318 319 320 319 317 316 316 316 316 315 315
78 77 73 74 73 74 75 74 75 72 63 59 61 58 58 58 52 41 32 30 24 14 16 16 1 357 360 1 2 355 347 351 351 346 348 350 346 346 345 344 345 345 345 344 342 342 340 336 337 340 335 330 329 329 328 325 322 320 317 315 313 312 309 308 309 310 308 305 307 310 310 311 315 317 316 317 319 320 320 319 318 317 317 317 317 316 316 316
82 86 88 84 71 63 69 69 70 72 62 55 60 58 52 50 47 41 30 23 21 13 11 12 3 360 3 2 357 349 345 350 350 345 347 348 346 345 345 344 345 345 345 345 343 342 341 337 339 342 337 331 333 336 332 329 326 322 318 316 315 314 315 314 313 312 309 309 311 313 312 313 317 319 318 318 319 319 318 317 317 318 318 318 317 316 317 317
88 88 86 84 72 61 66 66 63 67 63 56 59 56 48 44 42 40 30 18 16 14 10 9 7 3 1 357 352 348 349 351 348 346 347 346 344 344 343 343 346 346 346 346 344 342 342 340 339 340 336 332 335 338 334 332 330 326 322 321 318 317 317 317 316 312 309 311 313 312 312 315 320 322 320 319 319 318 317 317 317 318 319 319 318 317 317 317